Location: Ash Swamp
(41.5170°N, 74.6157°W)
Time: 00:33:18
(UTC+00:00)

ERS-2 - Visible Passes

Search period start: 24 October 2020 00:00
Search period end: 03 November 2020 00:00
Orbit: 492 x 499 km, 98.6° (Epoch: 23 October)

Date Brightness Start Highest point End Pass type
(mag) Time Alt. Az. Time Alt. Az. Time Alt. Az.
24 Oct 3.1 09:09:04 10° SE 09:12:33 46° ENE 09:14:08 27° NNE visible
24 Oct 4.1 10:45:22 10° WSW 10:46:21 11° W 10:47:20 10° WNW visible
24 Oct 5.4 23:46:04 10° NW 23:47:30 12° WNW 23:48:54 10° W visible
25 Oct 4.3 08:48:40 10° SE 08:51:42 25° ENE 08:52:40 22° NE visible
25 Oct 3.4 10:22:30 10° SW 10:25:13 20° W 10:27:14 13° NW visible
25 Oct 4.8 23:23:59 10° NNW 23:26:44 20° WNW 23:29:29 10° WSW visible
26 Oct 5.1 08:28:49 10° E 08:30:55 15° ENE 08:31:13 15° ENE visible
26 Oct 2.6 10:00:47 10° SSW 10:04:09 36° W 10:05:48 23° NW visible
26 Oct 3.8 23:02:33 10° N 23:05:55 36° WNW 23:09:16 10° SW visible
27 Oct 1.9 09:39:33 10° S 09:43:09 71° WSW 09:44:23 39° NNW visible
27 Oct 2.4 22:41:24 10° N 22:45:02 70° WNW 22:48:39 10° SSW visible
28 Oct 2.6 09:18:39 10° SSE 09:22:13 58° ENE 09:23:00 45° NNE visible
29 Oct 3.9 08:58:07 10° SE 09:01:20 31° ENE 09:01:38 30° ENE visible
29 Oct 3.7 10:32:36 10° SW 10:34:57 16° W 10:36:12 14° WNW visible
29 Oct 5.1 23:33:56 10° NNW 23:36:21 17° WNW 23:38:47 10° WSW visible
30 Oct 4.9 08:38:02 10° ESE 08:40:16 18° ENE 08:40:16 18° ENE visible
30 Oct 2.9 10:10:39 10° SSW 10:13:51 29° W 10:14:51 25° WNW visible
30 Oct 4.1 23:12:20 10° N 23:15:32 29° WNW 23:18:45 10° SW visible
31 Oct 2.1 09:49:15 10° S 09:52:49 56° WSW 09:53:30 47° WNW visible
31 Oct 2.8 22:51:06 10° N 22:54:40 55° WNW 22:58:14 10° SSW visible
01 Nov 2.2 09:28:14 10° SSE 09:31:51 73° ENE 09:32:10 67° NNE visible
01 Nov 2.0 22:30:04 10° NNE 22:33:44 75° ESE 22:37:22 10° S visible
02 Nov 3.5 09:07:34 10° SE 09:10:50 37° ENE 09:10:50 37° ENE visible
02 Nov 3.9 10:42:49 10° SW 10:44:38 13° W 10:45:25 13° W visible
02 Nov 5.2 23:43:55 10° NNW 23:45:56 14° WNW 23:47:56 10° W visible
